Location: Unspecified
(0.0000°N, 0.0000°E)
Time: 17:37:47
(UTC+02:00)

Resurs 01 Rocket - Visible Passes

Search period start: 26 September 2016 00:00
Search period end: 06 October 2016 00:00
Orbit: 635 x 644 km, 98.2° (Epoch: 25 September)

Date Brightness Start Highest point End Pass type
(mag) Time Alt. Az. Time Alt. Az. Time Alt. Az.
26 Sep 1.6 21:28:57 73° N 21:28:57 73° N 21:32:59 10° N visible
27 Sep 2.9 21:52:51 38° WNW 21:52:51 38° WNW 21:56:05 10° NNW visible
28 Sep 3.1 20:39:11 16° ENE 20:39:11 16° ENE 20:41:45 10° NE visible
28 Sep 4.2 22:16:46 18° WNW 22:16:46 18° WNW 22:18:31 10° NW visible
29 Sep 2.4 21:03:06 31° NE 21:03:06 31° NE 21:06:15 10° NNE visible
30 Sep 2.3 21:27:03 41° N 21:27:03 41° N 21:29:58 10° N visible
01 Oct 3.3 21:51:00 27° NW 21:51:00 27° NW 21:53:08 10° NNW visible
02 Oct 3.5 20:37:21 13° ENE 20:37:21 13° ENE 20:38:25 10° NE visible
02 Oct 4.4 22:14:57 14° NW 22:14:57 14° NW 22:15:42 10° NW visible
03 Oct 3.1 21:01:18 21° NE 21:01:18 21° NE 21:03:07 10° NNE visible
04 Oct 3.3 21:25:17 22° N 21:25:17 22° N 21:26:56 10° N visible
05 Oct 3.9 21:49:16 16° NNW 21:49:16 16° NNW 21:50:12 10° NNW visible
